sat.trackr.live / text

‹ back to catalog

STARLINK-5423

NORAD 55670 · 2023-021AU

PAYLOAD ACTIVE UNKNOWN

§ Identity

Operator
Country
US
Launch date
2023-02-17
Launch site
AFWTR
Launch vehicle
Mass (kg)
RCS (m²)

Purposes: comms

External: N2YO · Heavens-Above · Gunter

§ Orbital elements

Epoch: 2026-05-24T21:54:17.019936Z

Period
96.11 min
Inclination
69.9990°
Eccentricity
0.0002508
Mean motion
14.98329143 rev/d
Perigee alt
570.3 km
Apogee alt
573.8 km
Semi-major
6,950.2 km
B*
-9.2111e-6
RAAN
332.2039°
Arg perigee
269.1923°
Mean anomaly
90.8949°
Rev number
18,070

§ Raw data

STARLINK-54231 55670U 23021AU  26144.91269699 -.00000203  00000+0 -92111-5 0  99942 55670  69.9990 332.2039 0002508 269.1923  90.8949 14.98329143180705

JSON: /api/v1/satellites/55670 · /tle

For live sub-satellite position, see the globe view (requires WebGL).

§ Visibility from observer

Set your observer location to see the next 7 days of passes ≥ 10°. The values pass through the URL so the page stays shareable.

No JS? Fill the form by hand. The geolocation button needs JavaScript.